This is the latest recevied weather packets stored in our database for station/object N7CW. If no packets are shown the sender has not sent any weather packets the latest 10 day(s).
| Time | Temp. | Humidity | Pressure | Rain* | Wind** | Luminosity | Snow |
|---|---|---|---|---|---|---|---|
| 1777180611 | 11.67° C | 31% | 1010.1 hPa | 0 mm | - | 0 W/m² | - |
| 1777180308 | 11.67° C | 31% | 1010.5 hPa | 0 mm | - | 0 W/m² | - |
| 1777180004 | 11.67° C | 31% | 1010.2 hPa | 0 mm | - | 0 W/m² | - |
| 1777179700 | 11.67° C | 31% | 1010.6 hPa | 0 mm | - | 0 W/m² | - |
| 1777179399 | 11.67° C | 32% | 1010.6 hPa | 0 mm | - | 0 W/m² | - |
| 1777179098 | 11.67° C | 31% | 1010.7 hPa | 0 mm | - | 0 W/m² | - |
| 1777178796 | 11.11° C | 33% | 1011.1 hPa | 0 mm | - | 0 W/m² | - |
| 1777178492 | 11.11° C | 35% | 1010.8 hPa | 0 mm | - | 0 W/m² | - |
| 1777178188 | 12.22° C | 30% | 1010.8 hPa | 0 mm | - | 0 W/m² | - |
| 1777177881 | 12.22° C | 30% | 1010.6 hPa | 0 mm | - | 0 W/m² | - |
| 1777177576 | 11.67° C | 31% | 1010.5 hPa | 0 mm | - | 0 W/m² | - |
| 1777177272 | 11.67° C | 31% | 1010.6 hPa | 0 mm | - | 0 W/m² | - |
| 1777176969 | 11.67° C | 31% | 1010.6 hPa | 0 mm | - | 0 W/m² | - |
| 1777176665 | 11.67° C | 31% | 1010.7 hPa | 0 mm | - | 0 W/m² | - |
| 1777176362 | 11.67° C | 30% | 1010.5 hPa | 0 mm | - | 0 W/m² | - |
| 1777176059 | 12.22° C | 30% | 1011.2 hPa | 0 mm | - | 0 W/m² | - |
| 1777175757 | 11.67° C | 30% | 1011.1 hPa | 0 mm | - | 0 W/m² | - |
| 1777175452 | 11.67° C | 31% | 1011.1 hPa | 0 mm | - | 0 W/m² | - |
| 1777175146 | 12.22° C | 29% | 1011.2 hPa | 0 mm | - | 0 W/m² | - |
| 1777174844 | 12.22° C | 29% | 1010.9 hPa | 0 mm | - | 0 W/m² | - |
| 1777174540 | 12.22° C | 29% | 1010.7 hPa | 0 mm | - | 0 W/m² | - |
| 1777174240 | 12.22° C | 29% | 1011.1 hPa | 0 mm | - | 0 W/m² | - |
| 1777173940 | 12.22° C | 29% | 1011.2 hPa | 0 mm | - | 0 W/m² | - |
| 1777173637 | 12.22° C | 28% | 1011.1 hPa | 0 mm | - | 0 W/m² | - |
| 1777173331 | 12.22° C | 28% | 1011.2 hPa | 0 mm | - | 0 W/m² | - |
* Rain latest hour (hover to see other rain measurements)
** Current wind speed in m/s (hover to see current wind gust speed)